KCLM

William R. Fairchild International Airport

Airport
ICAO code
KCLM
Summary
ICAO Region
NAM
ICAO Territory
Location

Port Angeles, Washington,

Coordinates
48° 6' 59" N , 123° 29' 36" W
KCC
Airport WX
Fog
Metar
Observation
KCLM 031953Z AUTO 05007KT 10SM FEW050 OVC070 08/03 A2971 RMK AO2 SLP061 T00830028
Station
Port Angeles, William R. Fairchild International Airport
Date/Time
2023-02-03 19:53:00
Wind direction
50°
Wind speed
07 kts
Lowest cloud amount
few clouds
Temperature
8.3°C
Dew point
2.8°C
Humidity
68%
Weather condition
n/a

Description

William R. Fairchild International Airport is a public use airport located within the city limits of Port Angeles, in Clallam County, Washington.

Climatology

Temperate Marine climate/Oceanic climate (Köppen climate classification Cfb). Moderately cool summer and comparatively warm winter.

Airport map

Aerial View

SKYbrary Partners:

Safety knowledge contributed by: